Location: Melita
(38.4566°N, 122.6369°W)
Time: 09:52:40
(UTC+00:00)

ALOS - Pass Details

Date: 24 January 2020
Orbit: 683 x 686 km, 97.8° (Epoch: 19 February)

Event Time Altitude Azimuth Distance (km) Brightness Sun altitude
Rises 13:11:36 0° 15° (NNE) 3,054 5.7 -25.5°
Reaches altitude 10° 13:13:53 10° 19° (NNE) 2,134 4.9 -25.0°
Maximum altitude 13:18:31 64° 101° (E) 755 2.6 -24.1°
Drops below altitude 10° 13:23:07 10° 183° (S) 2,118 4.8 -23.2°
Sets 13:25:22 0° 186° (S) 3,029 5.6 -22.8°
